Location: Unspecified
(0.0000°N, 0.0000°E)
Time: 08:29:00
(UTC+00:00)

ATLAS 5 CENTAUR DEB - Pass Details

Date: 24 February 2026
Orbit: 7342 x 34659 km, 20.8° (Epoch: 6 March)

Event Time Altitude Azimuth Distance (km) Brightness Sun altitude
Rises 22:40:17 0° 251° (WSW) 19,530 ? -65.0°
Reaches altitude 10° 22:59:05 10° 253° (WSW) 21,016 ? -69.2°
Enters shadow 03:34:51 22° 282° (WNW) 38,245 ? -39.0°
Exits shadow 05:04:03 15° 287° (WNW) 37,499 ? -17.1°
Maximum altitude 09:37:49 90° 37° (NE) 8,094 ? 50.2°
Drops below altitude 10° 10:17:23 10° 113° (ESE) 11,839 ? 59.7°
Sets 10:26:33 0° 112° (ESE) 13,718 ? 61.8°
